Погода в Сухиничах

Россия / Калужская область     54°06′06″N   35°20′21″E
темп.,
°C
ветер,
м/с
пор.,
м/с
влажн.,
%
обл.,
%
осадки,
мм/ч
давл.,
гПа
погр.,
м
6 августа, пт
пт600:00+16ю289091 0.3 1012176
03:00+15ююв259679 0.4 1012117
06:00+15вюв239688 0.4 101169
09:00+16юв4992100 0.8 1010302
12:00+21юв4876100 0.1 1009495
15:00+27ююв475180 0.1 10071262
18:00+27ююв375586 0.0 1006380
21:00+22в366786 0.0 100596
7 августа, сб
сб700:00+19юз1275100 0.0 100641
03:00+16з3697100 0.0 1006132
06:00+17зюз2293100 0.0 100749
09:00+22ююз3477100 0.1 1008560
12:00+25ю476098 0.0 10081317
15:00+26ю5760100 0.1 10081559
18:00+22юз3788100 2.1 1009384
21:00+18зюз3993100 2.8 1010216
8 августа, вс
вс800:00+14з2291100 0.0 101237
03:00+13юз2293100 0.0 101441
06:00+13юз2494100 0.0 101494
09:00+17з358063 0.0 1015363
12:00+23з23580 0.0 10151020
15:00+25юз23510 0.0 10151437
18:00+25зсз235958 0.0 1016392
21:00+18ссз22735 0.0 101711
9 августа, пн
пн900:00+16св11805 0.0 101811
03:00+15всв11855 0.0 101911
06:00+15в11885 0.0 101911
09:00+22в22681 0.0 1019339
12:00+27вюв12500 0.0 10191165
15:00+29в12457 0.0 10181792
18:00+28ссв225838 0.0 1017110
21:00+21ссв22763 0.0 101823
10 августа, вт
вт1000:00+18св22881 1.1 101827
03:00+17ююв228334 1.8 101823
06:00+16юв118457 0.2 101811
09:00+21юв3569100 0.2 1018340
12:00+24юв5559100 0.0 10171058
15:00+20вюв4680100 0.0 1018440
18:00+20вюв3586100 0.4 1017328
21:00+17всв369692 0.5 1016161